[[[{"header":{"parameterUnit":"kt","parameterCategory":2,"dx":1,"dy":1,"la1":30.253999710083008,"la2":30.299108505249023,"lo1":-89.0895004272461,"lo2":-89.04439544677734,"nx":28,"ny":28,"refTime":"2022-10-31T21:00:00:Z","depth":0,"parameterNumber":1,"parameterNumberName":"U-component_of_WINDS"},"data":[2.9925,2.9988,2.9972,3.0036,3.0032,3.0073,3.0083,3.0093,3.0098,3.0146,3.0171,3.0162,3.016,3.0186,3.0213,3.0208,3.0219,3.0253,3.0241,3.0105,3.0085,3.0066,3.0048,3.0257,3.0257,3.0384,3.0385,3.0386,2.9825,2.9821,2.9851,2.9868,2.9893,2.985,2.9861,2.9885,2.9923,2.993,2.9954,2.9995,3.0026,3.0013,3.0041,3.007,3.0051,3.0078,3.0074,3.0074,2.9928,2.991,3.0093,3.0093,3.0093,3.0093,3.0093,3.0093,2.9636,2.9675,2.9675,2.9707,2.9712,2.9724,2.9758,2.9745,2.9775,2.98,2.9776,2.982,2.9824,2.9849,2.9854,2.9888,2.9854,2.9879,2.9885,2.989,2.9898,2.9713,2.9892,2.9892,2.9891,2.9891,2.989,0,2.9492,2.9475,2.9502,2.9525,2.9548,2.9564,2.9576,2.9597,2.9557,2.9584,2.962,2.9639,2.9676,2.9708,2.9731,2.973,2.9688,2.9683,2.9699,2.9709,2.9715,2.971,2.947,2.9677,2.9676,2.9674,2.9673,2.9672,2.9298,2.9346,2.9339,2.936,2.9362,2.9399,2.9417,2.9378,2.9399,2.9409,2.9446,2.9479,2.9502,2.9565,2.955,2.9578,2.9557,2.9638,2.9561,2.9569,2.9555,2.9551,2.9554,2.9652,2.9655,2.9657,2.9659,0,2.9189,2.9161,2.9231,2.9219,2.9218,2.9271,2.9261,2.9299,2.9282,2.9333,2.9342,2.9317,2.9354,2.9325,2.9364,2.9347,2.9434,2.9415,2.9431,2.9424,2.9491,2.9484,2.9719,2.9747,2.9533,2.9535,2.9537,0,2.9011,2.9077,2.9031,2.9073,2.9145,2.9102,2.9175,2.9167,2.9169,2.9209,2.9156,2.9194,2.9152,2.9186,2.9163,2.9229,2.9237,2.9227,2.922,2.923,2.9231,2.9239,2.9228,2.9205,2.9204,2.9203,2.9202,0,2.8842,2.8896,2.8964,2.8972,2.8966,2.8999,2.8999,2.9001,2.902,2.904,2.9051,2.9079,2.9093,2.9115,2.9084,2.9032,2.9165,2.9088,2.9155,2.9155,2.9183,2.9181,2.9399,2.92,2.92,2.9199,2.9199,0,2.8692,2.8712,2.8817,2.8809,2.8825,2.8872,2.8894,2.8927,2.8933,2.892,2.8936,2.8897,2.8954,2.8879,2.8957,2.8898,2.8915,2.8912,2.8916,2.8917,2.8833,2.8956,2.9169,2.9188,2.8921,2.8919,2.8917,0,2.8505,2.8603,2.8566,2.8668,2.8708,2.8643,2.8695,2.8702,2.8689,2.8722,2.8708,2.8747,2.8686,2.8694,2.8737,2.8723,2.88,2.8713,2.876,2.8762,2.8756,2.8953,2.899,2.9126,2.8887,2.889,2.8892,0,2.8355,2.8346,2.8367,2.8372,2.8375,2.8409,2.8469,2.8497,2.8521,2.8536,2.8583,2.864,2.8594,2.8609,2.858,2.8626,2.8747,2.8571,2.857,2.8601,2.8871,2.8905,2.8928,2.8718,2.8721,2.8724,2.8869,0,2.813,2.8176,2.8231,2.8248,2.827,2.8333,2.83,2.8328,2.8296,2.8281,2.8352,2.8352,2.8382,2.8402,2.8373,2.8488,2.8463,2.8415,2.8338,2.8468,2.8515,2.8534,2.8271,2.8268,2.8266,2.8265,0,0,2.7955,2.802,2.7978,2.8033,2.8049,2.798,2.8049,2.8057,2.8076,2.8088,2.8045,2.8124,2.8126,2.8216,2.8254,2.8268,2.8284,2.824,2.8407,2.8423,2.8438,2.8488,2.8509,2.8261,2.826,2.826,2.8259,0,2.7865,2.7867,2.7936,2.7942,2.7949,2.7928,2.7945,2.794,2.7933,2.8004,2.7946,2.7985,2.8051,2.8059,2.8071,2.823,2.8183,2.8242,2.8336,2.8388,2.8406,2.8423,2.8476,2.8497,2.8254,2.8254,2.8254,0,2.7709,2.7704,2.7735,2.7768,2.7772,2.7817,2.7728,2.778,2.7813,2.7736,2.7806,2.7802,2.7811,2.7902,2.7941,2.7903,2.8093,2.8029,2.8041,2.8044,2.8092,2.8115,2.8135,2.7869,2.7867,2.7866,0,0,2.7636,2.7678,2.7661,2.7746,2.7752,2.7723,2.7745,2.7714,2.7723,2.7727,2.772,2.7732,2.7768,2.7794,2.7827,2.7932,2.7929,2.7982,2.8,2.8015,2.8027,2.8079,2.8101,2.7862,2.7862,2.7861,0,0,2.76,2.7582,2.7548,2.7643,2.7653,2.7641,2.7695,2.7653,2.7679,2.7668,2.7621,2.7623,2.7707,2.7705,2.7647,2.7799,2.7723,2.7737,2.7796,2.7818,2.7836,2.7834,2.7555,0,0,0,0,0,2.749,2.7584,2.7553,2.7564,2.7607,2.7659,2.7664,2.7626,2.7572,2.7616,2.7603,2.7552,2.7664,2.7611,2.7623,2.7688,2.7802,2.7813,2.7823,2.7923,2.7947,2.7968,0,0,0,0,0,0,2.7494,2.7507,2.7551,2.7544,2.7553,2.7655,2.7555,2.7548,2.7567,2.7556,2.7556,2.7552,2.7522,2.7602,2.7614,2.7676,2.7551,2.7806,2.7815,2.7823,2.7932,2.7951,2.7968,0,0,0,0,0,2.7497,2.7507,2.7585,2.7542,2.755,2.7523,2.7551,2.7544,2.7558,2.7539,2.7533,2.7528,2.7525,2.7532,2.7609,2.7671,2.7543,2.7547,2.7812,2.7819,2.7825,2.7941,0,0,0,0,0,0,2.7499,2.7502,2.7586,2.7587,2.7503,2.7516,2.7517,2.7542,2.7539,2.7535,2.7508,2.7499,2.7528,2.7533,2.7539,2.7672,2.7536,2.7541,2.7544,2.7817,2.7823,2.7828,0,0,0,0,0,0,2.7495,2.7503,2.7587,2.754,2.7535,2.751,2.7511,2.7571,2.754,2.7508,2.7501,2.7504,2.752,2.7534,2.7539,2.7634,2.7531,2.7535,2.7538,2.754,2.7822,2.7826,0,0,0,0,0,0,2.7498,2.7504,2.7539,2.7536,2.7531,2.754,2.7563,2.7609,2.7499,2.7509,2.7488,2.7483,2.7523,2.7526,2.7539,2.7633,2.7634,2.7531,2.7534,2.7536,2.7538,0,0,0,0,0,0,0,2.75,2.7466,2.758,2.7532,2.7528,2.7597,2.7597,2.7597,2.7498,2.7493,2.7489,2.7485,2.7506,2.7511,2.7516,2.7632,0,0,2.7531,2.7533,0,0,0,0,0,0,0,0,2.7462,2.7465,2.758,2.758,2.758,2.7597,2.7597,2.7597,2.7497,2.7494,2.749,2.7487,2.7508,2.7512,2.7515,0,0,0,0,0,0,0,0,0,0,0,0,0,0,0,2.758,2.758,0,2.7597,2.7597,2.7597,2.7497,2.7494,2.7491,2.7488,2.7509,2.7512,2.7515,0,0,0,0,0,0,0,0,0,0,0,0,0,0,0,0,0,0,0,0,0,0,0,0,0,0,0,0,0,0,0,0,0,0,0,0,0,0,0,0,0,0,0,0,0,0,0,0,0,0,0,0,0,0,0,0,0,0,0,0,0,0,0,0,0,0,0,0,0]}],[{"header":{"parameterUnit":"kt","parameterCategory":2,"dx":1,"dy":1,"la1":30.253999710083008,"la2":30.299108505249023,"lo1":-89.0895004272461,"lo2":-89.04439544677734,"nx":28,"ny":28,"refTime":"2022-10-31T21:00:00:Z","depth":0,"parameterNumber":2,"parameterNumberName":"V-component_of_WINDS"},"data":[1.9354,1.9356,1.9348,1.9346,1.9338,1.9334,1.9329,1.9322,1.9315,1.9307,1.9301,1.9291,1.9278,1.9267,1.9258,1.9253,1.925,1.9255,1.9249,1.9233,1.923,1.9227,1.9227,1.9255,1.9255,1.9266,1.9266,1.9266,1.9338,1.9331,1.9328,1.932,1.9316,1.9305,1.9297,1.9294,1.9291,1.9282,1.9276,1.9268,1.926,1.9245,1.9235,1.9233,1.9227,1.9231,1.9231,1.9229,1.9211,1.9211,1.9236,1.9236,1.9236,1.9236,1.9236,1.9236,1.9306,1.9308,1.93,1.9297,1.929,1.9284,1.9284,1.9274,1.927,1.9262,1.9253,1.9248,1.9236,1.9221,1.9213,1.9207,1.9201,1.9203,1.9203,1.9203,1.9204,1.9186,1.9205,1.9205,1.9205,1.9205,1.9205,0,1.9281,1.9274,1.9272,1.9267,1.9265,1.926,1.9254,1.9254,1.9237,1.9234,1.9229,1.9225,1.9215,1.9208,1.9198,1.919,1.9178,1.9176,1.9177,1.9181,1.9185,1.9181,1.9152,1.9176,1.9176,1.9175,1.9175,1.9175,1.9247,1.9252,1.924,1.9239,1.9235,1.9234,1.9232,1.9217,1.9215,1.9204,1.9206,1.92,1.9195,1.9187,1.9174,1.9166,1.916,1.9169,1.9159,1.9162,1.9158,1.9158,1.9157,1.9172,1.9172,1.9173,1.9173,0,1.9228,1.9218,1.9223,1.9211,1.9208,1.9212,1.9201,1.9202,1.9193,1.9193,1.9192,1.9177,1.9172,1.9158,1.915,1.9142,1.9144,1.9139,1.9147,1.9145,1.9151,1.915,1.9176,1.9178,1.915,1.915,1.9151,0,1.9195,1.9202,1.9185,1.9189,1.9195,1.9181,1.9187,1.918,1.9172,1.9172,1.9158,1.9157,1.914,1.9137,1.9126,1.9125,1.9124,1.9118,1.9115,1.9119,1.912,1.9117,1.9116,1.911,1.911,1.911,1.911,0,1.9167,1.9167,1.9173,1.9171,1.9161,1.9163,1.9158,1.915,1.9149,1.9144,1.9142,1.9137,1.9134,1.9128,1.9115,1.9108,1.9115,1.9103,1.9108,1.9108,1.9111,1.9111,1.9137,1.911,1.911,1.911,1.911,0,1.9139,1.9137,1.9148,1.9138,1.9139,1.9143,1.9138,1.9139,1.9132,1.9126,1.9122,1.9111,1.9112,1.91,1.9099,1.9094,1.9091,1.9085,1.9086,1.9085,1.9072,1.9088,1.9115,1.9117,1.9083,1.9082,1.9082,0,1.9108,1.9118,1.9108,1.9119,1.9121,1.9106,1.9109,1.9105,1.9098,1.9097,1.9089,1.9089,1.9078,1.9076,1.9077,1.9068,1.9075,1.9067,1.9062,1.9062,1.9064,1.9089,1.9097,1.9111,1.9079,1.908,1.908,0,1.9083,1.9074,1.9077,1.9074,1.9068,1.9071,1.9076,1.9074,1.9074,1.9072,1.9074,1.9074,1.9065,1.9063,1.9055,1.9057,1.907,1.9047,1.9047,1.905,1.9078,1.9084,1.9087,1.9063,1.9063,1.9063,1.9078,0,1.904,1.9046,1.9054,1.9052,1.9053,1.906,1.905,1.9051,1.9043,1.9037,1.9041,1.9035,1.9033,1.9034,1.9027,1.9037,1.9033,1.9025,1.9013,1.903,1.9034,1.9036,1.9007,1.9007,1.9006,1.9006,0,0,1.9012,1.9021,1.9012,1.9018,1.9018,1.9004,1.9013,1.9011,1.9009,1.9008,1.9001,1.9002,1.8998,1.9004,1.9008,1.9008,1.9008,1.9004,1.9022,1.9024,1.9026,1.903,1.9033,1.9005,1.9005,1.9005,1.9005,0,1.8995,1.8995,1.9006,1.9004,1.9002,1.8996,1.8998,1.8993,1.899,1.8996,1.8983,1.8985,1.8988,1.8984,1.8982,1.9003,1.8993,1.9003,1.9017,1.9019,1.9021,1.9023,1.9029,1.9031,1.9004,1.9004,1.9004,0,1.8969,1.8966,1.8971,1.8974,1.8973,1.8977,1.8962,1.8968,1.8971,1.8955,1.8962,1.8957,1.8953,1.8961,1.8965,1.8959,1.8979,1.8972,1.8974,1.8974,1.8976,1.8979,1.8981,1.8948,1.8948,1.8948,0,0,1.8955,1.8961,1.8956,1.897,1.897,1.8962,1.8964,1.8958,1.8956,1.8955,1.895,1.8947,1.8948,1.8949,1.895,1.8961,1.8958,1.8966,1.8969,1.8971,1.8972,1.8974,1.8977,1.8947,1.8947,1.8947,0,0,1.8948,1.8943,1.8937,1.8953,1.8952,1.8946,1.8954,1.8946,1.8947,1.8945,1.8934,1.8933,1.8941,1.8937,1.8931,1.8945,1.8933,1.8935,1.8947,1.895,1.8953,1.8954,1.8915,0,0,0,0,0,1.8927,1.8944,1.8938,1.894,1.8944,1.8949,1.895,1.8942,1.8933,1.8939,1.8934,1.8924,1.8931,1.8925,1.8925,1.8933,1.894,1.8941,1.8943,1.8961,1.8964,1.8967,0,0,0,0,0,0,1.8928,1.893,1.8938,1.8934,1.8935,1.8949,1.8933,1.8931,1.8932,1.8931,1.8926,1.8924,1.8917,1.8924,1.8925,1.8932,1.8915,1.8941,1.8942,1.8943,1.8962,1.8965,1.8967,0,0,0,0,0,1.8928,1.893,1.894,1.8933,1.8934,1.8927,1.8932,1.893,1.8931,1.8924,1.8922,1.8925,1.8917,1.8917,1.8924,1.8932,1.8914,1.8914,1.8941,1.8942,1.8943,1.8964,0,0,0,0,0,0,1.8929,1.8928,1.894,1.894,1.8928,1.8926,1.8926,1.893,1.8924,1.8923,1.8923,1.8921,1.8918,1.8918,1.8918,1.8932,1.8914,1.8914,1.8914,1.8942,1.8943,1.8943,0,0,0,0,0,0,1.8927,1.8928,1.894,1.8933,1.8932,1.8925,1.8925,1.893,1.8924,1.8924,1.8922,1.8922,1.8917,1.8918,1.8918,1.8927,1.8913,1.8914,1.8914,1.8914,1.8942,1.8943,0,0,0,0,0,0,1.8927,1.8928,1.8933,1.8932,1.8931,1.8929,1.893,1.8934,1.892,1.8924,1.8918,1.8918,1.8918,1.8917,1.8918,1.8927,1.8927,1.8913,1.8913,1.8914,1.8914,0,0,0,0,0,0,0,1.8927,1.8924,1.8941,1.8932,1.8931,1.8938,1.8938,1.8938,1.892,1.8919,1.8919,1.8918,1.8912,1.8912,1.8912,1.8927,0,0,1.8913,1.8913,0,0,0,0,0,0,0,0,1.8924,1.8924,1.8941,1.8941,1.8941,1.8938,1.8938,1.8938,1.892,1.8919,1.8919,1.8918,1.8912,1.8912,1.8912,0,0,0,0,0,0,0,0,0,0,0,0,0,0,0,1.8941,1.8941,0,1.8938,1.8938,1.8938,1.892,1.8919,1.8919,1.8918,1.8912,1.8912,1.8912,0,0,0,0,0,0,0,0,0,0,0,0,0,0,0,0,0,0,0,0,0,0,0,0,0,0,0,0,0,0,0,0,0,0,0,0,0,0,0,0,0,0,0,0,0,0,0,0,0,0,0,0,0,0,0,0,0,0,0,0,0,0,0,0,0,0,0,0,0]}]]]